Flag for Micronesia Weather past 2 weeks in Colonia, Yap, Micronesia

Now
83 °F

Sprinkles. Broken clouds.


Feels Like: 91 °F
Forecast: 74 / 87 °F
Wind: 6 mph from North

Location: Yap Island


UV Index: 10 (Very high)

Visibility: 10 mi


Pressure: 29.76 "Hg

Humidity: 77%

Dew point: 75 °F

Location of ColoniaLocation

Historic Weather in Colonia

°F

Colonia temperature yesterday

Maximum temperature yesterday: 91 °F (at 3:50 PM)
Minimum temperature yesterday: 77 °F (at 4:51 AM)
Average temperature yesterday: 83 °F

Past Weeks' High & Low Weather Summary

 TemperatureHumidityPressure
High94 °F (Apr 12, 12:53 PM)94% (Apr 13, 5:52 AM)29.87 "Hg (Apr 13, 5:52 AM)
Low75 °F (Apr 11, 12:50 PM)57% (Apr 12, 12:53 PM)29.71 "Hg (Apr 11, 4:50 PM)
Average82 °F81%29.80 "Hg
* Reported Apr 1 5:50 PM — Apr 16 5:50 PM, Colonia, Weather by CustomWeather, © 2014

Note: Actual official high and low records may vary slightly from our data, if they occured in-between our weather recording intervals... More about our weather records

Advertising

Historic Weather Conditions — Data for Previous 24 hours

 ConditionsComfort  
Time TempWeatherWind HumidityBarometerVisibility
5:50 PM
Apr 16
83 °FSprinkles. Broken clouds.6 mph77%29.76 "Hg10 mi
4:50 PM85 °FCloudy.5 mph76%29.76 "Hg12 mi
3:51 PM86 °FCloudy.8 mph74%29.75 "Hg12 mi
2:50 PM86 °FBroken clouds.9 mph76%29.75 "Hg12 mi
1:53 PM84 °FBroken clouds.6 mph78%29.78 "Hg12 mi
12:50 PM83 °FSprinkles. Broken clouds.5 mph79%29.80 "Hg10 mi
11:50 AM85 °FSprinkles. Broken clouds.6 mph75%29.82 "Hg10 mi
10:50 AM85 °FScattered clouds.8 mph75%29.83 "Hg12 mi
8:50 AM86 °FScattered clouds.6 mph76%29.83 "Hg12 mi
7:52 AM84 °FScattered clouds.6 mph81%29.81 "Hg12 mi
6:51 AM79 °FPassing clouds.5 mph87%29.80 "Hg12 mi
5:50 AM79 °FPassing clouds.5 mph87%29.79 "Hg12 mi
4:50 AM79 °FPassing clouds.3 mph90%29.78 "Hg12 mi
3:50 AM79 °FPassing clouds.3 mph90%29.78 "Hg12 mi
2:50 AM79 °FPassing clouds.No wind90%29.80 "Hg12 mi
1:51 AM79 °FPartly cloudy.3 mph89%29.82 "Hg12 mi
12:51 AM79 °FPartly cloudy.5 mph85%29.84 "Hg12 mi
11:55 PM
Apr 15
79 °FPartly cloudy.5 mph85%29.85 "Hg12 mi
10:51 PM79 °FPartly cloudy.5 mph77%29.85 "Hg12 mi
9:53 PM79 °FPartly cloudy.3 mph75%29.84 "Hg12 mi
8:52 PM79 °FPartly cloudy.3 mph75%29.82 "Hg12 mi
7:50 PM83 °FBroken clouds.5 mph75%29.81 "Hg12 mi
Weather by CustomWeather, © 2014

See weather overview